SHIJIAN-25 (SJ-25)

Last updated on Wed Feb 05 2025 00:02:03 GMT+0000 (Coordinated Universal Time)

1 62485U 25002A 25035.70628146 -.00000370 00000+0 00000+0 0 9992 2 62485 10.2487 43.5294 0057081 183.7971 281.9097 1.00260483 373
UTC large
Height (km)
Speed (km/s)
/
Latitude / Longitude
Inclination (degrees)
Orbital Period (minutes)
Azimuth
Elevation
Range (km)
Doppler Factor

Next 0 passes for location: London (51.5072 / 0.1276)

Sorry there are no passes over London.